Vancouver, WA
on Friday, November 16, 2012

Friday
Previous Day Next Day
Daily Summary
 ActualAverageRecord
Temperature
Mean Temperature °F 46°F  
Max Temperature 52°F 53°F 65°F (2009)
Min Temperature 41°F 40°F 19°F (2014)
Degree Days
Heating Degree Days 18    
Month to date heating degree days 237  
Since 1 July heating degree days 556  
Cooling Degree Days 0    
Month to date cooling degree days 0  
Year to date cooling degree days 398  
Moisture
Dew Point 40°F   
Average Humidity 80    
Maximum Humidity 89    
Minimum Humidity 71    
Precipitation
Precipitation T in 0.19 in 2.24 in (1973)
Month to date precipitation 1.37 2.93  
Year to date precipitation 32.53 29.39  
Snow
Snow 0.00 in in in ()
Month to date snowfall 0.0  
Snow Depth 0.00 in   
Wind
Wind Speed 5 mph   
Max Wind Speed 12 mph   
Max Gust Speed 16 mph   
Visibility 10 miles   
Events     

Key: T is trace of precipitation, MM is missing value
Source: NWS Daily Summary
Time(PST)TemperatureDew PointHumidity Pressure Visibility Wind DirectionWind SpeedGust SpeedPrecipitationEvents Conditions
12:53 AM 43.0°F 37.0°F 80% 29.95 in 10.0 miles Variable 4.6 mph - N/A   Clear
1:53 AM 44.1°F 37.0°F 76% 29.94 in 10.0 miles Calm Calm - N/A   Overcast
2:53 AM 42.1°F 37.0°F 82% 29.93 in 10.0 miles East 3.5 mph - N/A   Partly Cloudy
3:53 AM 42.1°F 37.0°F 82% 29.93 in 10.0 miles Calm Calm - N/A   Overcast
4:53 AM 42.1°F 37.0°F 82% 29.93 in 10.0 miles Calm Calm - N/A   Mostly Cloudy
5:53 AM 42.1°F 37.9°F 85% 29.93 in 10.0 miles West 3.5 mph - N/A   Mostly Cloudy
6:53 AM 43.0°F 39.0°F 86% 29.94 in 10.0 miles South 3.5 mph - N/A   Mostly Cloudy
7:53 AM 43.0°F 39.9°F 89% 29.96 in 9.0 miles Calm Calm - N/A   Overcast
8:53 AM 45.0°F 39.9°F 82% 29.96 in 10.0 miles East 4.6 mph - N/A   Overcast
9:53 AM 46.9°F 41.0°F 80% 29.95 in 10.0 miles SSE 4.6 mph - N/A   Scattered Clouds
10:53 AM 48.0°F 39.9°F 74% 29.94 in 10.0 miles SSE 4.6 mph - N/A   Clear
11:53 AM 48.9°F 41.0°F 74% 29.91 in 10.0 miles Calm Calm - N/A   Overcast
12:53 PM 50.0°F 41.0°F 71% 29.88 in 10.0 miles SE 4.6 mph - N/A   Overcast
1:53 PM 51.1°F 42.1°F 71% 29.86 in 10.0 miles SE 5.8 mph - N/A   Scattered Clouds
2:53 PM 50.0°F 41.0°F 71% 29.84 in 10.0 miles ESE 10.4 mph - N/A   Overcast
3:53 PM 50.0°F 41.0°F 71% 29.84 in 10.0 miles SE 8.1 mph - N/A   Overcast
4:53 PM 50.0°F 41.0°F 71% 29.83 in 10.0 miles ESE 8.1 mph - N/A   Overcast
5:53 PM 50.0°F 41.0°F 71% 29.82 in 10.0 miles SSE 4.6 mph - 0.00 in   Overcast
6:53 PM 50.0°F 42.1°F 74% 29.80 in 10.0 miles SE 11.5 mph - N/A   Overcast
7:53 PM 48.9°F 41.0°F 74% 29.79 in 10.0 miles ESE 8.1 mph - N/A   Mostly Cloudy
8:53 PM 48.9°F 41.0°F 74% 29.78 in 10.0 miles SE 5.8 mph - N/A   Mostly Cloudy
9:53 PM 48.9°F 39.9°F 71% 29.78 in 10.0 miles SE 8.1 mph - N/A   Mostly Cloudy
10:53 PM 48.9°F 41.0°F 74% 29.76 in 10.0 miles SE 6.9 mph - N/A   Scattered Clouds
11:53 PM 48.9°F 39.9°F 71% 29.74 in 10.0 miles SE 9.2 mph - N/A   Partly Cloudy
Moon Phase
Nov. 16 Nov. 20 Nov. 28 Dec. 06 Dec. 13
Sunrise:07:12 AM (PST) Moon Rise:10:14 AM (PST)11/16
Sunset:04:38 PM (PST) Moon Set:07:42 PM (PST)11/16

Copyright © 2014 The Weather Underground, Inc.